Weather History for KSQL - May, 2013

Change the Weather History Date:

Saturday, May 4, 2013

  Actual Average Record
Temperature  
Mean Temperature 70 °F -  
Max Temperature 84 °F 72 °F 91 °F (1990)
Min Temperature 57 °F 47 °F 36 °F (1950)
Cooling Degree Days 6    
Growing Degree Days 20 (Base 50)    
Moisture  
Dew Point 45 °F    
Average Humidity 52    
Maximum Humidity 72    
Minimum Humidity 27    
Precipitation  
Precipitation 0.00 in - - ()
Sea Level Pressure  
Sea Level Pressure 29.70 in    
Wind  
Wind Speed 3 mph (West)    
Max Wind Speed 17 mph    
Max Gust Speed 22 mph    
Visibility 10 miles    
Events      
Averages and records for this station are not official NWS values.
T = Trace of Precipitation, MM = Missing Value Source: NWS Daily Summary

Daily Weather History Graph

Daily Weather History Graph

Search for Another Location

Airport or City:

Trip Planner

Search our weather history database for the weather conditions in past years. The results will help you decide how hot, cold, wet, or windy it might be!

Date:

Astronomy

May. 04, 2013 Rise Set
Actual Time 6:10 AM PDT 8:02 PM PDT
Civil Twilight 5:41 AM PDT 8:30 PM PDT
Nautical Twilight 5:07 AM PDT 9:05 PM PDT
Astronomical Twilight 4:30 AM PDT 9:41 PM PDT
Moon 3:05 AM PDT (5/4) 3:11 PM PDT (5/4)
Length of Visible Light 14h 48m
Length of Day
13h 51m
Waning Crescent, 26% of the Moon is Illuminated
May 4
Waning Crescent
May 9
New
May 17
First Quarter
May 24
Full
May 31
Last Quarter

Hourly Weather History & Observations

Time (PDT) Temp. Dew Point Humidity Pressure Visibility Wind Dir Wind Speed Gust Speed Precip Events Conditions
12:15 AM 66.2 °F 39.2 °F 37% 29.81 in 10.0 mi Calm Calm - N/A   Clear
12:35 AM 66.2 °F 39.2 °F 37% 29.81 in 10.0 mi Calm Calm - N/A   Clear
12:55 AM 64.4 °F 39.2 °F 40% 29.80 in 10.0 mi Calm Calm - N/A   Clear
1:15 AM 64.4 °F 39.2 °F 40% 29.79 in 10.0 mi Calm Calm - N/A   Clear
1:35 AM 64.4 °F 39.2 °F 40% 29.78 in 10.0 mi NW 3.5 mph - N/A   Clear
1:55 AM 62.6 °F 39.2 °F 42% 29.78 in 10.0 mi WNW 3.5 mph - N/A   Clear
2:15 AM 62.6 °F 41.0 °F 45% 29.77 in 10.0 mi Calm Calm - N/A   Clear
2:35 AM 62.6 °F 41.0 °F 45% 29.76 in 10.0 mi Calm Calm - N/A   Clear
2:55 AM 62.6 °F 41.0 °F 45% 29.76 in 10.0 mi Calm Calm - N/A   Partly Cloudy
3:15 AM 60.8 °F 46.4 °F 59% 29.76 in 10.0 mi NW 5.8 mph - N/A   Partly Cloudy
3:35 AM 60.8 °F 46.4 °F 59% 29.76 in 10.0 mi WNW 5.8 mph - N/A   Partly Cloudy
3:55 AM 59.0 °F 44.6 °F 59% 29.76 in 10.0 mi NW 3.5 mph - N/A   Clear
4:15 AM 59.0 °F 42.8 °F 55% 29.76 in 10.0 mi WNW 3.5 mph - N/A   Clear
4:35 AM 59.0 °F 41.0 °F 51% 29.76 in 10.0 mi Calm Calm - N/A   Clear
4:55 AM 59.0 °F 42.8 °F 55% 29.75 in 10.0 mi Calm Calm - N/A   Clear
5:15 AM 59.0 °F 41.0 °F 51% 29.75 in 10.0 mi Calm Calm - N/A   Clear
5:35 AM 59.0 °F 41.0 °F 51% 29.75 in 10.0 mi Calm Calm - N/A   Clear
5:55 AM 59.0 °F 42.8 °F 55% 29.74 in 10.0 mi Calm Calm - N/A   Clear
6:15 AM 59.0 °F 42.8 °F 55% 29.74 in 10.0 mi Calm Calm - N/A   Clear
6:35 AM 59.0 °F 44.6 °F 59% 29.74 in 10.0 mi Calm Calm - N/A   Clear
6:47 AM 59.0 °F 44.6 °F 59% 29.74 in 10.0 mi Calm Calm - N/A   Clear
6:55 AM 59.0 °F 42.8 °F 55% 29.74 in 10.0 mi Calm Calm - N/A   Clear
7:50 AM 62.6 °F 44.6 °F 52% 29.74 in 10.0 mi Calm Calm - N/A   Clear
8:55 AM 66.2 °F 50.0 °F 56% 29.72 in 10.0 mi NE 3.5 mph - N/A   Clear
9:52 AM 68.0 °F 53.6 °F 60% 29.71 in 10.0 mi Variable 3.5 mph - N/A   Clear
10:53 AM 69.8 °F 59.0 °F 68% 29.69 in 10.0 mi Variable 6.9 mph - N/A   Clear
11:57 AM 77.0 °F 50.0 °F 39% 29.68 in 10.0 mi NW 9.2 mph - N/A   Clear
12:47 PM 80.6 °F 48.2 °F 32% 29.66 in 10.0 mi NNW 8.1 mph - N/A   Clear
1:57 PM 84.2 °F 46.4 °F 27% 29.62 in 10.0 mi West 8.1 mph - N/A   Clear
2:48 PM 80.6 °F 50.0 °F 34% 29.61 in 10.0 mi West 11.5 mph - N/A   Clear
3:48 PM 77.0 °F 51.8 °F 41% 29.59 in 10.0 mi WNW 11.5 mph - N/A   Clear
4:47 PM 73.4 °F 50.0 °F 44% 29.57 in 10.0 mi WNW 16.1 mph - N/A   Partly Cloudy
5:47 PM 71.6 °F 50.0 °F 46% 29.57 in 10.0 mi West 17.3 mph - N/A   Partly Cloudy
6:53 PM 68.0 °F 50.0 °F 52% 29.57 in 10.0 mi West 9.2 mph - N/A   Partly Cloudy
7:47 PM 64.4 °F 50.0 °F 59% 29.59 in 10.0 mi NW 6.9 mph - N/A   Partly Cloudy
8:53 PM 62.6 °F 50.0 °F 63% 29.60 in 10.0 mi West 4.6 mph - N/A   Partly Cloudy
9:15 PM 60.8 °F 48.2 °F 63% 29.61 in 10.0 mi West 5.8 mph - N/A   Clear
9:35 PM 59.0 °F 48.2 °F 67% 29.62 in 10.0 mi West 8.1 mph - N/A   Clear
9:55 PM 57.2 °F 48.2 °F 72% 29.63 in 10.0 mi WSW 5.8 mph - N/A   Clear
10:15 PM 59.0 °F 46.4 °F 63% 29.63 in 10.0 mi South 9.2 mph - N/A   Clear
10:35 PM 59.0 °F 44.6 °F 59% 29.63 in 10.0 mi South 15.0 mph 20.7 mph N/A   Partly Cloudy
10:55 PM 57.2 °F 44.6 °F 63% 29.63 in 10.0 mi South 12.7 mph 21.9 mph N/A   Partly Cloudy
11:15 PM 57.2 °F 44.6 °F 63% 29.64 in 10.0 mi South 15.0 mph - N/A   Clear
11:35 PM 57.2 °F 44.6 °F 63% 29.63 in 10.0 mi South 11.5 mph - N/A   Clear
11:55 PM 57.2 °F 44.6 °F 63% 29.63 in 10.0 mi South 11.5 mph - N/A   Clear